Weather History for KYKM - August, 2013

Change the Weather History Date:

Thursday, August 29, 2013

  Actual Average Record
Temperature  
Mean Temperature 74 °F 66 °F  
Max Temperature 86 °F 84 °F 98 °F (1998)
Min Temperature 61 °F 49 °F 36 °F (1980)
Degree Days  
Heating Degree Days 0 2  
Month to date heating degree days 0 24  
Since 1 June heating degree days 39 143  
Since 1 July heating degree days 0 45  
Cooling Degree Days 9 3  
Month to date cooling degree days 262 153  
Year to date cooling degree days 825 433  
Since 1 June cooling degree days 773 413  
Growing Degree Days 24 (Base 50)    
Moisture  
Dew Point 55 °F    
Average Humidity 55    
Maximum Humidity 78    
Minimum Humidity 32    
Precipitation  
Precipitation 0.04 in 0.01 in 0.27 in (1983)
Month to date precipitation 0.19 0.24  
Year to date precipitation 4.36 4.75  
Snow  
Snow 0.00 in 0.00 in 0.00 in (2002)
Month to date snowfall 0.0 0.0  
Year to date snowfall 1.1 8.6  
Since 1 July snowfall 0.0 0.0  
Snow Depth 0.00 in    
Sea Level Pressure  
Sea Level Pressure 29.90 in    
Wind  
Wind Speed 6 mph (West)    
Max Wind Speed 17 mph    
Max Gust Speed 23 mph    
Visibility 10 miles    
Events      
T = Trace of Precipitation, MM = Missing Value Source: NWS Daily Summary

Daily Weather History Graph

Daily Weather History Graph

Search for Another Location

Airport or City:

Trip Planner

Search our weather history database for the weather conditions in past years. The results will help you decide how hot, cold, wet, or windy it might be!

Date:

Astronomy

Aug. 29, 2013 Rise Set
Actual Time 6:18 AM PDT 7:46 PM PDT
Civil Twilight 5:47 AM PDT 8:17 PM PDT
Nautical Twilight 5:09 AM PDT 8:55 PM PDT
Astronomical Twilight 4:27 AM PDT 9:36 PM PDT
Moon 12:03 AM PDT (8/29) 3:30 PM PDT (8/29)
Length of Visible Light 14h 30m
Length of Day
13h 27m
Last Quarter, 37% of the Moon is Illuminated
Aug 29
Last Quarter
Sep 5
New
Sep 12
First Quarter
Sep 19
Full
Sep 26
Last Quarter

Hourly Weather History & Observations

Time (PDT) Temp. Heat Index Dew Point Humidity Pressure Visibility Wind Dir Wind Speed Gust Speed Precip Events Conditions
12:53 AM 68.0 °F - 57.9 °F 70% 29.86 in 10.0 mi West 3.5 mph - N/A   Clear
1:53 AM 66.0 °F - 57.0 °F 73% 29.86 in 10.0 mi WSW 5.8 mph - N/A   Clear
2:53 AM 69.1 °F - 57.0 °F 65% 29.84 in 10.0 mi Calm Calm - N/A   Clear
3:53 AM 72.0 °F - 55.9 °F 57% 29.83 in 10.0 mi North 5.8 mph - N/A   Clear
4:53 AM 64.0 °F - 55.9 °F 75% 29.84 in 10.0 mi Calm Calm - N/A   Clear
5:53 AM 62.1 °F - 55.0 °F 78% 29.84 in 10.0 mi West 4.6 mph - N/A   Clear
6:53 AM 62.1 °F - 55.9 °F 80% 29.85 in 10.0 mi West 6.9 mph - N/A   Clear
7:53 AM 68.0 °F - 57.0 °F 68% 29.86 in 10.0 mi West 5.8 mph - N/A   Clear
8:53 AM 73.9 °F - 55.9 °F 53% 29.87 in 10.0 mi WNW 3.5 mph - N/A   Clear
9:53 AM 79.0 °F - 55.0 °F 44% 29.86 in 10.0 mi WSW 3.5 mph - N/A   Clear
10:53 AM 81.0 °F 80.5 °F 54.0 °F 39% 29.87 in 10.0 mi Calm Calm - N/A   Clear
11:00 AM 80.6 °F 80.3 °F 53.6 °F 39% 29.90 in 10.0 mi Calm Calm - N/A   Scattered Clouds
11:53 AM 75.0 °F - 62.1 °F 64% 29.91 in 10.0 mi WNW 5.8 mph - 0.04 in   Scattered Clouds
12:53 PM 79.0 °F - 61.0 °F 54% 29.91 in 10.0 mi Variable 3.5 mph - N/A   Partly Cloudy
1:53 PM 82.9 °F 82.6 °F 57.9 °F 42% 29.90 in 10.0 mi West 10.4 mph - N/A   Mostly Cloudy
2:53 PM 82.9 °F 81.8 °F 53.1 °F 36% 29.91 in 10.0 mi NW 5.8 mph - N/A   Mostly Cloudy
3:53 PM 84.9 °F - 52.0 °F 32% 29.91 in 10.0 mi WNW 5.8 mph - N/A   Mostly Cloudy
4:53 PM 84.9 °F - 51.1 °F 31% 29.91 in 10.0 mi WSW 16.1 mph 23.0 mph N/A   Mostly Cloudy
5:53 PM 82.9 °F - 52.0 °F 34% 29.91 in 10.0 mi WSW 11.5 mph 18.4 mph N/A   Scattered Clouds
6:53 PM 79.0 °F - 52.0 °F 39% 29.93 in 10.0 mi West 13.8 mph - N/A   Mostly Cloudy
7:53 PM 77.0 °F - 51.1 °F 40% 29.94 in 10.0 mi WSW 5.8 mph - N/A   Mostly Cloudy
8:53 PM 71.6 °F - 51.8 °F 50% 29.96 in 10.0 mi WNW 4.6 mph - N/A   Clear
9:53 PM 69.1 °F - 51.1 °F 53% 29.97 in 10.0 mi Calm Calm - N/A   Partly Cloudy
10:53 PM 68.0 °F - 52.0 °F 56% 29.99 in 10.0 mi North 4.6 mph - N/A   Clear
11:53 PM 64.0 °F - 53.1 °F 67% 30.01 in 10.0 mi Variable 4.6 mph - N/A   Clear